Успенское

Россия / Московская область     55°42′59″N   37°04′05″E
темп.,
°C
ветер,
м/с
пор.,
м/с
влажн.,
%
обл.,
%
осадки,
мм/ч
давл.,
гПа
погр.,
м
24 октября, вс
вс2400:00+4зюз4884100 0.1 1009935
03:00+4юз41096100 0.7 1009749
06:00+3з4886100 0.1 1010877
09:00+2з41096100 0.4 1012666
12:00+3сз5982100 0.3 1015947
15:00+3сз61176100 0.5 10171173
18:00+1сз5107590 0.1 1020832
21:000ссз511828 0.1 1023664
25 октября, пн
пн2500:00−1сз39795 0.0 1025385
03:00−2сз38905 0.0 1027319
06:00−2зсз269294 0.0 1028240
09:00−1з257877 0.0 1029277
12:00+2зюз4559100 0.0 1029756
15:00+4зюз4758100 0.0 1027804
18:00+2юз41171100 0.0 1027498
21:00+1юз513745 0.0 1025478
26 октября, вт
вт2600:000юз5138134 0.0 1025444
03:000зюз51485100 0.0 1025431
06:000зюз51485100 0.0 1024418
09:00+2зюз51578100 0.0 1023478
12:00+5юз51464100 0.0 1022577
15:00+6юз5146197 0.0 1020748
18:00+4юз5156872 0.0 1020565
21:00+3юз51472100 0.0 1020530
27 октября, ср
ср2700:00+2юз51378100 0.0 1020432
03:00+2юз413807 0.0 1019378
06:00+1юз5138040 0.0 1017382
09:00+2юз51475100 0.0 1016476
12:00+5юз51369100 0.0 1015623
15:00+4зюз51291100 1.1 1015556
18:00+5з51184100 0.1 1016841
21:00+5з5118977 0.1 1017690
28 октября, чт
чт2800:00+4з4119096 0.0 1018433
03:00+4з4109072 0.0 1018530
06:00+5з4879100 0.0 1019642
09:00+5юз3882100 0.0 1019326
12:00+7юз4987100 0.0 1018489
15:00+7юз41089100 0.1 1016545
18:00+6юз3995100 0.5 1016463
21:00+6з2898100 1.9 1016393